DG7AA-13 Weather Reports


Display with metric or nautical units.
time (UTC)temp
F
wind
direction
speed
MPH
gust
MPH
rain 1hr
in
rain 24hr
in
rain mn
in
humidity
%
barometer
mb
20260506234523 47 346 2.0 4.0 0.00 0.12 0.00 98
20260506233534 48 338 2.0 5.0 0.00 0.13 0.00 98
20260506232527 48 333 3.0 4.0 0.00 0.14 0.00 98
20260506231534 48 337 2.0 4.0 0.00 0.15 0.00 99
20260506230526 48 344 2.0 4.0 0.00 0.17 0.00 99
20260506225533 48 346 1.0 3.0 0.00 0.18 0.00 99
20260506224526 48 331 2.0 4.0 0.00 0.19 0.00 99
20260506223533 48 334 2.0 5.0 0.00 0.20 0.00 99
20260506222523 48 345 2.0 4.0 0.00 0.21 0.00 99
20260506221534 48 337 2.0 4.0 0.00 0.21 0.00 99
20260506220523 48 344 2.0 4.0 0.00 0.22 0.00 99
20260506215527 48 338 2.0 4.0 0.00 0.24 0.24 99
20260506214524 48 342 2.0 4.0 0.00 0.24 0.24 99
20260506213525 48 347 2.0 4.0 0.00 0.25 0.24 98
20260506212525 48 331 2.0 4.0 0.00 0.26 0.24 98
20260506211534 48 344 2.0 3.0 0.00 0.26 0.24 98
20260506210523 48 340 2.0 4.0 0.00 0.27 0.24 98
20260506205531 48 342 2.0 4.0 0.00 0.27 0.24 98
20260506204524 49 346 2.0 4.0 0.00 0.28 0.24 98
20260506203531 48 337 2.0 4.0 0.00 0.28 0.24 98
20260506202525 49 346 2.0 4.0 0.00 0.30 0.24 98
20260506201531 49 351 2.0 4.0 0.00 0.30 0.24 98
20260506200526 49 348 3.0 5.0 0.00 0.30 0.24 98
20260506195525 49 349 3.0 4.0 0.00 0.31 0.24 98
20260506194526 49 341 2.0 4.0 0.00 0.31 0.24 98
20260506193534 49 346 2.0 4.0 0.00 0.31 0.24 98
20260506192523 49 334 2.0 3.0 0.00 0.31 0.24 98
20260506191531 49 343 2.0 4.0 0.00 0.31 0.24 97
20260506190523 49 337 2.0 4.0 0.00 0.31 0.24 97
20260506185524 50 340 2.0 4.0 0.00 0.31 0.24 97
20260506184523 50 340 2.0 4.0 0.00 0.31 0.24 97
20260506183530 50 342 2.0 4.0 0.00 0.31 0.24 97
20260506182523 50 347 2.0 5.0 0.00 0.31 0.24 97
20260506181534 50 338 2.0 3.0 0.00 0.31 0.24 97
20260506180523 50 341 2.0 4.0 0.00 0.31 0.24 97
20260506175524 50 346 3.0 5.0 0.00 0.31 0.24 97
20260506174523 51 341 2.0 4.0 0.00 0.31 0.24 97
20260506173531 51 342 2.0 4.0 0.00 0.31 0.24 97
20260506172522 51 336 2.0 4.0 0.00 0.31 0.24 97
20260506171531 51 340 2.0 4.0 0.00 0.31 0.24 97
20260506170526 51 338 2.0 4.0 0.00 0.31 0.24 97
20260506165531 51 347 3.0 5.0 0.00 0.31 0.24 97
20260506164526 51 340 2.0 4.0 0.00 0.31 0.24 97
20260506163529 51 337 2.0 4.0 0.00 0.31 0.24 97
20260506162523 51 344 2.0 4.0 0.00 0.31 0.24 97
20260506161521 51 334 2.0 4.0 0.00 0.31 0.24 97
20260506160523 51 349 3.0 5.0 0.00 0.31 0.24 97
20260506155534 52 346 3.0 6.0 0.00 0.31 0.24 97
20260506154522 52 341 3.0 4.0 0.00 0.31 0.24 97
20260506153531 53 337 1.0 3.0 0.00 0.31 0.24 97
20260506152526 52 350 2.0 3.0 0.00 0.31 0.24 96
20260506151533 53 344 1.0 4.0 0.00 0.31 0.24 96
20260506150524 53 356 0.0 3.0 0.00 0.31 0.24 96
20260506145534 53 336 2.0 4.0 0.00 0.31 0.24 96
20260506144523 53 346 3.0 5.0 0.00 0.31 0.24 96
20260506143526 53 352 2.0 5.0 0.00 0.31 0.24 96
20260506142523 53 337 1.0 4.0 0.00 0.31 0.24 96
20260506141534 53 342 3.0 5.0 0.00 0.31 0.24 96
20260506140527 53 334 2.0 5.0 0.00 0.31 0.24 96
20260506135531 53 349 2.0 4.0 0.00 0.31 0.24 97
20260506134524 53 340 2.0 5.0 0.00 0.31 0.24 97
20260506133525 53 344 2.0 4.0 0.00 0.31 0.24 97
20260506132522 52 352 3.0 6.0 0.00 0.31 0.24 97
20260506131534 52 346 2.0 5.0 0.00 0.31 0.24 97
20260506130522 52 339 2.0 4.0 0.00 0.31 0.24 97
20260506125522 52 351 3.0 6.0 0.00 0.31 0.24 97
20260506124523 52 345 2.0 4.0 0.00 0.31 0.24 97
20260506123533 52 332 2.0 5.0 0.00 0.31 0.24 97
20260506122526 52 338 2.0 5.0 0.00 0.31 0.24 96
20260506121534 52 331 2.0 4.0 0.00 0.31 0.24 96
20260506120522 52 341 3.0 7.0 0.00 0.31 0.24 96
20260506115530 52 338 3.0 6.0 0.00 0.31 0.24 96
20260506114548 52 348 2.0 4.0 0.00 0.31 0.24 96
20260506113531 51 337 2.0 5.0 0.00 0.31 0.24 97
20260506112523 51 341 3.0 5.0 0.00 0.31 0.24 97
20260506111527 51 348 3.0 5.0 0.00 0.31 0.24 97
20260506110525 52 348 3.0 5.0 0.00 0.31 0.24 97
20260506105534 52 347 2.0 4.0 0.00 0.31 0.24 97
20260506104526 52 337 3.0 6.0 0.00 0.31 0.24 97
20260506103530 51 345 2.0 5.0 0.00 0.31 0.24 98
20260506102523 51 351 2.0 4.0 0.00 0.31 0.24 98
20260506101524 51 345 2.0 5.0 0.00 0.31 0.24 97
20260506100523 51 347 2.0 5.0 0.00 0.31 0.24 97
20260506095533 51 346 1.0 4.0 0.00 0.31 0.24 98
20260506094525 51 350 2.0 4.0 0.00 0.31 0.24 98
20260506093531 51 345 2.0 4.0 0.00 0.31 0.24 97
20260506092523 51 339 3.0 4.0 0.00 0.31 0.24 97
20260506091530 52 344 2.0 4.0 0.00 0.31 0.24 97
20260506090523 52 329 2.0 4.0 0.00 0.31 0.24 98
20260506085531 52 342 2.0 5.0 0.00 0.31 0.24 97
20260506084523 53 334 2.0 4.0 0.00 0.31 0.24 98
20260506083524 53 336 1.0 3.0 0.00 0.31 0.24 98
20260506082523 52 329 1.0 3.0 0.00 0.31 0.24 98
20260506081526 53 325 1.0 4.0 0.00 0.31 0.24 98
20260506080522 53 339 2.0 4.0 0.00 0.31 0.24 98
20260506073529 52 334 1.0 3.0 0.00 0.31 0.24 98
20260506072526 52 332 1.0 3.0 0.00 0.31 0.24 98
20260506071534 52 329 1.0 4.0 0.00 0.31 0.24 98
20260506070523 52 318 0.0 2.0 0.00 0.31 0.24 99
20260506061534 51 309 0.0 1.0 0.00 0.31 0.24 99
20260506060526 51 335 0.0 2.0 0.00 0.31 0.24 99
20260506050523 51 95 0.0 2.0 0.00 0.31 0.24 99
20260506044523 51 331 0.0 2.0 0.00 0.31 0.24 99
20260506043531 51 341 0.0 2.0 0.00 0.31 0.24 99
20260506042526 51 335 0.0 2.0 0.00 0.31 0.24 99
20260506041526 51 346 1.0 3.0 0.00 0.32 0.24 99
20260506040526 51 341 1.0 2.0 0.00 0.32 0.24 99
20260506035533 51 340 1.0 4.0 0.00 0.32 0.24 99
20260506034522 51 336 0.0 2.0 0.00 0.33 0.24 98
20260506033533 51 340 0.0 2.0 0.00 0.33 0.24 98
20260506032523 51 344 0.0 1.0 0.00 0.33 0.24 98
20260506031530 51 344 0.0 1.0 0.00 0.35 0.24 98
20260506030523 51 345 1.0 3.0 0.00 0.35 0.24 98
20260506025524 51 345 1.0 2.0 0.00 0.37 0.24 98
20260506024526 51 348 0.0 2.0 0.00 0.37 0.24 98
20260506023526 51 338 0.0 2.0 0.00 0.37 0.24 98
20260506022522 51 315 0.0 2.0 0.00 0.37 0.24 98
20260506021530 52 341 1.0 2.0 0.00 0.37 0.24 98
20260506020522 52 352 1.0 3.0 0.00 0.37 0.24 98
20260506015534 52 349 1.0 2.0 0.00 0.37 0.24 98
20260506014522 52 332 0.0 2.0 0.01 0.37 0.24 98
20260506013534 52 353 1.0 3.0 0.02 0.37 0.24 98
20260506012526 52 346 0.0 2.0 0.04 0.37 0.24 98
20260506011534 52 351 1.0 3.0 0.06 0.37 0.24 98
20260506010523 52 350 2.0 4.0 0.07 0.37 0.24 98
20260506005521 52 336 2.0 4.0 0.09 0.37 0.24 98
20260506004522 52 347 2.0 4.0 0.11 0.35 0.22 98
20260506003531 52 359 2.0 4.0 0.11 0.34 0.21 98
20260506002525 52 344 2.0 4.0 0.11 0.34 0.20 98
20260506001530 52 346 2.0 3.0 0.09 0.32 0.18 98
20260506000523 52 348 1.0 2.0 0.09 0.31 0.17 98
20260505235523 52 341 1.0 3.0 0.08 0.28 0.14 97